Regional Weather Roundup
Issued by NWS

Home | Current Version | Previous Version | Text Only | Print | Product List | Glossary On
Versions: 1 2 3 4 5 6 7 8 9 10 11 12 13 14 15 16 17 18 19 20 21 22 23 24 25 26 27 28 29 30 31 32 33 34 35 36 37 38 39 40 41 42 43 44 45 46 47 48 49 50
000
ASUS44 KFWD 271815
RWRTX
NORTH TEXAS HOURLY WEATHER ROUNDUP
NATIONAL WEATHER SERVICE FORT WORTH TX
100 PM CDT FRI MAY 27 2016

NOTE: "FAIR" INDICATES FEW OR NO CLOUDS BELOW 12,000 FEET WITH NO
SIGNIFICANT WEATHER AND/OR OBSTRUCTIONS TO VISIBILITY.

TXZ118-119-271900-
DALLAS/FORT WORTH METROPLEX

CITY           SKY/WX    TMP DP  RH WIND       PRES   REMARKS
DFW AIRPORT    CLOUDY    72  66  81 SE14      29.74F
6HR MIN TEMP:  67; 6HR MAX TEMP:  72; 6HR PCP:  0.24;

DALLAS LOVE    PTSUNNY   71  66  84 SE10      29.75F
6HR MIN TEMP:  67; 6HR MAX TEMP:  71; 6HR PCP:  0.24;

FTW MEACHAM    CLOUDY    72  65  78 SE14      29.75F
6HR MIN TEMP:  66; 6HR MAX TEMP:  72; 6HR PCP:  0.11;

DAL-EXECUTIVE  CLOUDY    70  67  90 SE12      29.76F
6HR MIN TEMP:  65; 6HR MAX TEMP:  70; 6HR PCP:  0.22;

FTW-ALLIANCE   CLOUDY    72  65  78 S13       29.75F
6HR MIN TEMP:  65; 6HR MAX TEMP:  72; 6HR PCP:  0.14;

FTW-NAS-JRB    MOSUNNY   73  64  73 S10       29.76F
6HR MIN TEMP:  66; 6HR MAX TEMP:  73; 6HR PCP:  0.10;

FTW-SPINKS     PTSUNNY   73  66  78 SE14      29.79S
ARLINGTON      CLOUDY    74  66  76 SE15      29.76F
6HR MIN TEMP:  68; 6HR MAX TEMP:  74; 6HR PCP:  0.14;

GRAND PRAIRIE  SUNNY     70  66  88 E12       29.77F
ADDISON        MOSUNNY   70  66  88 SE14G20   29.75F
MESQUITE       MOSUNNY   66  66 100 SE16      29.76F
LANCASTER      LGT RAIN  66  63  89 SE10G21   29.77F VSB 3/4
6HR MIN TEMP:  64; 6HR MAX TEMP:  66; 6HR PCP:  0.32;

$$

TXZ091>094-102>105-117-120-121-131>134-271900-
NORTH CENTRAL TEXAS

CITY           SKY/WX    TMP DP  RH WIND       PRES   REMARKS
SHRMAN/DENISON CLOUDY    68  60  76 S12       29.76R
6HR MIN TEMP:  61; 6HR MAX TEMP:  68; 6HR PCP:  0.19;

GAINESVILLE    PTSUNNY   72  62  72 S18G28    29.75F
6HR MIN TEMP:  64; 6HR MAX TEMP:  72; 6HR PCP:  0.01;

BOWIE          MOSUNNY   72  62  72 S14G23    29.73F
6HR MIN TEMP:  64; 6HR MAX TEMP:  72;

BRIDGEPORT     CLOUDY    72  64  75 S13G21    29.77F
6HR MIN TEMP:  64; 6HR MAX TEMP:  72;

DECATUR        CLOUDY    71  60  69 S17       29.76F
6HR MIN TEMP:  64; 6HR MAX TEMP:  71; 6HR PCP:  0.11;

DENTON         CLOUDY    72  64  76 S18       29.74F
6HR MIN TEMP:  65; 6HR MAX TEMP:  72; 6HR PCP:  0.07;

MCKINNEY       PTSUNNY   68  65  90 S16       29.73F
6HR MIN TEMP:  65; 6HR MAX TEMP:  68; 6HR PCP:  0.43;

GREENVILLE     CLOUDY    68  64  88 SE14      29.75F
ROCKWALL       CLOUDY    67  66  97 SW15G25   29.75F
6HR MIN TEMP:  66; 6HR MAX TEMP:  67; 6HR PCP:  0.29;

TERRELL        PTSUNNY   69  67  93 SE12      29.77F
6HR MIN TEMP:  66; 6HR MAX TEMP:  69; 6HR PCP:  0.37;

WAXAHACHIE     CLOUDY    68  68  99 SE15G21   29.78F
6HR MIN TEMP:  64; 6HR MAX TEMP:  68; 6HR PCP:  0.39;

CLEBURNE       CLOUDY    72  70  94 SE17      29.80R
GRANBURY       PTSUNNY   74  65  74 SE15      29.79S
6HR MIN TEMP:  64; 6HR MAX TEMP:  74; 6HR PCP:  0.56;

$$

TXZ083>090-098>101-113>116-127>130-139>142-154-155-271900-
WESTERN NORTH TEXAS

CITY           SKY/WX    TMP DP  RH WIND       PRES   REMARKS
WICHITA FALLS  SUNNY     79  64  60 S23       29.69F
6HR MIN TEMP:  64; 6HR MAX TEMP:  79;

WF-KICKAPOO    SUNNY     80  64  58 S16G26    29.71S
6HR MIN TEMP:  66; 6HR MAX TEMP:  80;

VERNON         SUNNY     82  53  36 S12       29.71F
ABILENE        MOSUNNY   78  68  71 S17       29.77F
6HR MIN TEMP:  60; 6HR MAX TEMP:  79;

ABILENE-DYESS  MOSUNNY   81  59  47 S10       29.76S
6HR MIN TEMP:  60; 6HR MAX TEMP:  81;

BRECKENRIDGE   MOSUNNY   79  66  64 S21       29.76S
6HR MIN TEMP:  64; 6HR MAX TEMP:  79;

GRAHAM         MOSUNNY   80  69  69 S14G21    29.73F
6HR MIN TEMP:  64; 6HR MAX TEMP:  80;

MINERAL WELLS  MOSUNNY   72  65  78 S10       29.76S
6HR MIN TEMP:  63; 6HR MAX TEMP:  73; 6HR PCP:  0.18;

STEPHENVILLE   MOSUNNY   72  65  78 S12G17    29.82S
6HR MIN TEMP:  62; 6HR MAX TEMP:  72;

COMANCHE       PTSUNNY   73  66  79 SE14G22   29.80F
6HR MIN TEMP:  62; 6HR MAX TEMP:  73; 6HR PCP:  0.86;

BROWNWOOD      CLOUDY    72  64  78 SE15G23   29.80F
COLEMAN        CLOUDY    75  65  71 S9G16     29.81F
6HR MIN TEMP:  65; 6HR MAX TEMP:  75; 6HR PCP:  0.01;

$$

TXZ143>147-156>162-174-175-271900-
CENTRAL TEXAS

CITY           SKY/WX    TMP DP  RH WIND       PRES   REMARKS
WACO           CLOUDY    69  65  86 SE14      29.80F
6HR MIN TEMP:  63; 6HR MAX TEMP:  70; 6HR PCP:  0.43;

WACO-TSTC      CLOUDY    68  64  88 E7        29.79F
WACO-MCGREGOR  CLOUDY   N/A N/A N/A SE9         N/A
                                      6HR PCP:  0.51;

HILLSBORO      CLOUDY    67  63  86 E13G22    29.78F
6HR MIN TEMP:  62; 6HR MAX TEMP:  69; 6HR PCP:  0.21;

CORSICANA      CLOUDY    69  64  84 E12       29.81F
6HR MIN TEMP:  66; 6HR MAX TEMP:  69; 6HR PCP:  0.18;

MEXIA          CLOUDY    65  65  99 E7        29.82F
6HR MIN TEMP:  63; 6HR MAX TEMP:  66; 6HR PCP:  0.91;

HEARNE         LGT RAIN  67  64  93 N7G21     29.82S
CAMERON        CLOUDY    67  65  94 NE7       29.81F
6HR MIN TEMP:  64; 6HR MAX TEMP:  68; 6HR PCP:  0.44;

TEMPLE         CLOUDY    67  64  90 E10G18    29.82F
6HR MIN TEMP:  63; 6HR MAX TEMP:  67; 6HR PCP:  0.73;

KILLEEN        CLOUDY    66  64  92 E8        29.81F
6HR MIN TEMP:  62; 6HR MAX TEMP:  66; 6HR PCP:  0.21;

KILLEEN-SKYLRK CLOUDY    66  64  93 E8        29.82F
6HR MIN TEMP:  63; 6HR MAX TEMP:  67; 6HR PCP:  0.76;

FORT HOOD      CLOUDY    65  64  96 E8        29.80F
6HR MIN TEMP:  62; 6HR MAX TEMP:  65; 6HR PCP:  0.57;

GATESVILLE     PTSUNNY   68  64  88 SE6       29.84S
HAMILTON       CLOUDY    71  67  85 SE17G23   29.82F
6HR MIN TEMP:  62; 6HR MAX TEMP:  71; 6HR PCP:  0.03;

LAMPASAS       CLOUDY    71  67  87 E8        29.82F
6HR MIN TEMP:  62; 6HR MAX TEMP:  71; 6HR PCP:  0.04;

$$

TXZ095>097-106>112-122>126-135>138-148>153-164>167-271900-
EAST TEXAS

CITY           SKY/WX    TMP DP  RH WIND       PRES   REMARKS
PARIS          CLOUDY    70  61  73 SE25G33   29.74F
6HR MIN TEMP:  68; 6HR MAX TEMP:  70; 6HR PCP:  0.06;

SULPHUR SPRNGS LGT RAIN  69  67  94 SE12      29.82F
6HR MIN TEMP:  68; 6HR MAX TEMP:  69; 6HR PCP:  0.14;

MOUNT PLEASANT CLOUDY    67  67  99 SE6       29.86F
6HR MIN TEMP:  67; 6HR MAX TEMP:  72; 6HR PCP:  0.26;

GILMER         TSTM      66  65  98 SE7       29.88F
6HR MIN TEMP:  66; 6HR MAX TEMP:  68; 6HR PCP:  0.49;

MINEOLA        DRIZZLE   66  64  94 SE6       29.86R
TYLER          CLOUDY    68  65  90 SE10      29.85F
6HR MIN TEMP:  67; 6HR MAX TEMP:  70; 6HR PCP:  0.38;

LONGVIEW       TSTM      66  66 100 S5        29.91R FOG
6HR MIN TEMP:  66; 6HR MAX TEMP:  69; 6HR PCP:  0.65;

MARSHALL         N/A    N/A N/A N/A MISG        N/A
ATHENS         CLOUDY    64  64 100 SE5       29.82F
PALESTINE      CLOUDY    65  65  97 NE8       29.85F
JACKSONVILLE   TSTM      65  65  98 NE12      29.86F
HENDERSON      TSTM      66  66 100 E13       29.86F
6HR MIN TEMP:  65; 6HR MAX TEMP:  68; 6HR PCP:  0.50;

CENTER         HVY RAIN  68  67  95 N9G17     29.89F
6HR MIN TEMP:  68; 6HR MAX TEMP:  71; 6HR PCP:  0.04;

NACOGDOCHES    CLOUDY    64  63  94 NW13      29.87R THUNDER
6HR MIN TEMP:  64; 6HR MAX TEMP:  70; 6HR PCP:  0.98;

LUFKIN         TSTM      65  64  97 N12       29.87R FOG
$$

SUPPLEMENTAL OBSERVATIONS (CENTRAL)

CITY           SKY/WX    TMP DP  RH WIND       PRES   REMARKS
LAKE TEXOMA      N/A     72  64  78 SW13        N/A
CADDO GRASSLND   N/A     72  66  83 S10G25      N/A
PAT MAYSE LAKE   N/A     70  66  88 SE28        N/A
GREENVILLE       N/A     68  63  83 SE14G23     N/A
LAKE LIMESTONE   N/A     66  64  94 NE8         N/A
MCGREGOR         N/A     70  64  83 E13         N/A
TEMPLE           N/A     66  61  82 NE13        N/A
$$

SUPPLEMENTAL OBSERVATIONS (WEST)

CITY           SKY/WX    TMP DP  RH WIND       PRES   REMARKS
POSSUM KINGDOM   N/A     79  66  65 S15G24      N/A
LBJ GRASSLAND    N/A     73  63  68 S12G2C1F1C2F2C3F3C4F4C5F5C6F6C7F7C8F8C9!



USA.gov is the U.S. government's official web portal to all federal, state and local government web resources and services.